Retour au catalogue

THOR ABLESTAR R/B

ActifPO
NORAD 669·ROCKET BODY·🇺🇸 United States

Lancé Sep 28, 1963 depuis Vandenberg Space Force Base

Loading…

Prochains Passages (prochaines 24 heures)

TLE

FraisSource: Space-Track

Époque: Sep 14, 2026, 03:22 UTC

1 00669U 63038A   26257.14087134  .00000044  00000-0  58147-4 0  9998
2 00669  89.9777 333.9721 0025043 218.0640 164.4729 13.46136629 91670

Suivez THOR ABLESTAR R/B en temps réel avec AllMySat

Download on the App Store